Location: ????????
(38.4362°N, 22.8767°E)
Time: 11:03:57
(UTC+00:00)

Cosmos 1048 Rocket - Pass Details

Date: 23 April 2024
Orbit: 742 x 788 km, 74.0° (Epoch: 18 May)

Event Time Altitude Azimuth Distance (km) Brightness Sun altitude
Exits shadow 01:29:23 62° 227° (SW) 869 3.9 -23.5°
Maximum altitude 01:30:12 76° 289° (WNW) 800 3.9 -23.3°
Drops below altitude 10° 01:35:27 10° 15° (NNE) 2,308 7.2 -22.6°
Sets 01:37:50 0° 17° (NNE) 3,231 8.1 -22.2°
